Wind_Speed
13 12 12 12 11 10 10 10 10 10 9 9 9 9 9 10 9 9 9 10 11 11 11 11 12 11 12 12 12 14 16 16 14 12 14 12 9 12 7 5 16 19 18 15 15 16 14 13 13 12 11 8 7 6 8 7 5 5 6 7 7 8 5 4 5 2 2 5 5 5 6 5 3 5 4 5 7 9 7 5 5 3 3 5 10 17 22 21
14 13 12 11 11 11 10 10 10 10 10 9 9 9 9 9 9 9 9 10 10 11 11 11 12 12 12 11 11 14 16 15 16 17 17 12 7 9 9 9 16 22 19 16 18 18 15 14 14 13 10 7 7 6 8 7 6 7 6 7 8 6 3 1 0 1 1 3 4 5 5 6 3 5 4 6 8 9 8 8 6 6 7 8 12 17 20 20
14 14 13 12 11 11 10 10 11 10 10 9 9 9 9 9 9 8 9 10 10 10 11 11 12 12 11 11 12 13 14 14 13 11 8 5 8 10 9 13 19 22 17 14 17 16 14 13 15 14 10 7 7 8 9 7 7 8 6 7 7 4 2 1 1 0 2 4 3 4 4 4 3 2 4 6 10 10 9 9 8 8 10 10 12 16 19 20
14 14 14 13 12 11 11 10 10 10 10 10 9 9 9 9 9 9 9 10 10 10 10 11 11 12 11 12 12 11 12 12 4 3 2 1 7 12 13 16 21 22 13 9 12 12 11 12 14 14 10 8 7 8 10 9 7 6 7 9 4 2 5 4 3 2 1 4 4 3 2 1 4 1 3 6 10 9 8 9 7 8 12 13 13 15 18 18
14 14 14 14 13 12 11 10 11 10 10 10 10 9 9 9 9 9 9 9 9 10 10 11 11 11 11 11 11 9 8 6 3 6 2 3 5 13 14 17 23 21 11 7 10 10 10 11 13 12 9 8 8 9 10 11 7 5 9 10 4 2 6 4 4 1 1 3 4 3 2 2 2 3 2 6 9 6 4 4 2 5 12 15 15 15 16 16
14 14 14 14 13 13 12 11 11 10 10 10 10 10 9 9 9 9 9 9 9 9 9 10 10 11 11 10 9 7 7 2 4 3 4 4 7 15 14 18 24 18 11 10 11 10 12 12 12 11 9 9 10 11 10 11 8 7 9 9 6 5 6 3 2 1 1 4 4 3 3 2 3 3 1 6 5 4 4 2 0 3 9 14 15 15 16 17
15 14 14 14 13 13 12 12 11 10 10 10 10 9 9 9 9 9 8 9 8 8 9 10 10 10 9 9 7 7 8 3 3 2 5 1 11 17 16 19 22 17 13 13 12 11 11 12 13 10 9 9 10 12 10 10 10 10 8 7 9 8 7 7 4 2 3 6 4 4 4 4 6 2 1 6 3 4 4 3 2 4 9 13 14 14 15 16
15 14 14 14 14 13 13 13 12 11 10 10 10 9 9 9 9 9 8 9 8 8 9 9 9 9 8 7 6 6 7 2 4 4 4 4 15 20 19 19 18 16 15 14 12 11 10 12 13 9 10 9 9 11 10 10 11 13 10 6 7 7 8 9 7 6 6 6 4 5 7 6 4 2 3 6 3 1 3 2 5 7 10 12 13 13 14 13
15 15 14 14 14 13 13 13 12 12 11 10 9 9 9 8 9 9 8 9 8 8 8 8 9 8 6 5 7 6 2 4 6 2 1 9 18 22 20 16 16 15 13 12 10 10 8 10 11 9 9 7 9 10 10 10 9 11 13 7 7 8 8 9 8 9 7 5 4 7 9 5 2 3 5 5 3 2 2 4 7 9 11 11 11 12 12 12
15 15 14 14 14 13 13 13 13 12 11 10 9 9 8 8 9 8 8 8 7 8 7 7 7 5 4 6 8 4 4 6 7 4 4 11 20 23 17 14 17 15 11 10 10 11 8 8 9 7 7 5 8 9 11 11 3 5 12 9 9 9 8 8 9 9 7 5 7 9 8 4 3 5 6 6 6 5 6 7 8 9 10 10 10 11 11 11
15 15 15 15 14 14 13 13 13 12 12 10 9 8 8 7 8 8 8 7 7 7 6 6 5 3 5 6 7 4 4 4 5 5 4 11 18 19 15 14 16 13 10 10 10 11 9 5 5 5 4 5 8 9 10 9 2 1 7 8 10 10 8 9 10 9 7 7 8 9 7 4 6 8 4 8 8 7 8 9 9 9 9 10 10 10 9 8
15 15 15 15 14 14 14 13 13 12 13 11 9 8 7 7 7 7 7 7 7 6 5 5 4 4 6 7 7 5 0 1 2 3 4 9 14 13 11 12 13 10 9 9 10 11 6 3 7 8 3 5 8 7 7 8 5 4 5 7 9 10 10 12 12 9 7 6 6 6 7 7 10 10 5 9 8 8 8 9 9 9 9 10 10 9 8 7
16 16 15 15 15 14 14 14 13 13 13 12 10 8 7 7 6 6 6 6 6 5 6 4 3 4 6 6 3 4 4 4 3 2 5 8 9 9 9 10 10 7 6 7 7 9 7 3 6 6 2 5 6 4 4 7 7 7 7 7 7 8 10 13 11 8 8 5 5 7 8 9 13 12 8 8 9 9 9 9 9 9 8 9 9 9 8 7
16 16 16 15 15 15 15 14 13 13 13 12 11 9 8 7 6 6 5 6 5 5 5 3 3 4 5 6 2 5 8 5 5 6 8 9 8 6 8 10 8 6 4 3 3 6 8 5 5 4 3 5 2 4 5 8 7 8 8 6 6 7 7 12 11 10 11 5 6 9 7 8 12 14 11 9 10 10 9 8 8 8 7 8 8 9 8 9
16 16 16 16 16 15 15 14 14 13 13 13 12 10 8 7 6 6 4 5 5 3 2 2 4 4 6 7 3 4 6 5 7 9 10 11 9 7 9 11 8 6 4 3 2 4 7 6 5 4 5 3 2 6 7 7 7 7 7 7 8 7 5 10 10 11 11 6 9 11 7 8 8 13 12 9 9 9 8 8 7 7 7 7 7 8 8 10
16 16 16 16 16 16 15 15 14 14 14 14 13 10 8 7 6 5 3 2 3 1 2 3 4 5 6 3 2 2 3 5 5 7 11 11 8 7 11 11 8 7 6 4 3 4 7 7 5 3 3 5 6 8 7 6 7 7 7 7 7 8 6 7 10 11 10 6 10 12 9 7 5 11 10 9 10 9 8 8 8 7 7 7 7 8 8 10
16 16 17 17 16 16 16 15 15 14 14 15 13 8 7 5 2 2 2 3 2 2 4 4 2 5 6 2 2 3 3 2 2 6 10 10 6 8 13 10 8 8 7 6 4 5 7 7 4 2 5 6 7 7 7 7 7 6 8 7 6 9 8 6 9 10 9 7 10 12 11 8 4 9 10 9 9 10 9 8 8 7 6 6 7 8 8 9
17 17 17 17 16 16 15 15 15 14 15 15 11 6 4 2 2 3 3 4 3 4 5 4 3 5 4 4 4 2 3 2 4 6 8 9 7 10 13 9 9 10 9 8 6 7 7 6 5 5 6 6 6 7 7 6 7 7 8 7 6 7 8 7 6 8 10 10 11 11 12 12 6 7 9 9 9 9 9 7 8 7 7 7 7 8 8 9
17 17 17 17 16 16 15 15 15 14 16 14 8 4 3 2 3 3 4 5 5 4 4 3 6 5 3 3 4 1 0 1 5 6 9 11 9 11 10 8 11 11 10 8 8 8 6 5 6 6 7 7 8 10 7 3 4 6 7 7 7 7 8 8 4 6 6 8 10 11 10 12 11 9 10 10 9 8 8 7 6 7 7 7 8 8 7 9
17 17 17 17 16 17 16 15 15 15 16 12 5 3 2 2 3 3 5 7 9 10 11 6 9 10 8 5 3 3 3 5 5 6 12 13 12 12 9 10 11 10 9 8 8 7 5 6 7 7 7 9 10 7 3 3 2 3 5 6 7 6 7 9 5 5 2 6 9 11 10 12 12 10 11 10 10 9 8 8 7 7 7 7 8 8 8 8
17 17 17 17 17 17 16 15 15 15 15 9 4 5 4 4 5 2 1 8 12 14 15 13 12 13 10 4 1 2 3 6 6 7 13 14 14 11 9 10 11 9 8 7 7 5 5 7 7 7 4 4 4 2 1 2 3 5 6 6 7 7 6 6 4 3 2 5 8 9 11 13 9 8 10 10 10 10 9 9 8 8 8 7 8 9 9 8
18 17 17 18 18 17 17 15 15 16 11 4 5 6 5 4 3 4 4 8 11 13 15 15 13 12 11 8 5 2 2 5 7 9 12 13 13 10 9 11 11 9 8 6 6 6 7 8 8 6 3 3 2 2 4 5 6 6 7 6 6 7 6 5 5 3 4 5 6 8 11 9 6 6 10 10 9 9 8 9 8 8 8 7 8 9 9 9
18 18 18 19 19 18 16 15 17 15 7 4 6 8 4 2 3 4 5 7 10 9 11 12 12 11 11 10 9 7 7 8 8 11 13 13 12 10 9 11 11 9 9 10 8 7 6 6 7 7 5 4 5 4 7 6 6 8 7 7 6 7 7 4 6 5 3 4 5 5 9 6 6 6 8 7 6 6 7 8 8 8 8 7 7 8 10 11
19 18 19 19 19 18 16 16 16 9 5 7 11 10 4 3 6 5 5 7 9 5 5 6 7 9 9 6 9 13 10 8 8 10 15 15 11 9 10 12 11 9 9 12 11 9 5 3 3 7 7 8 7 6 9 7 7 9 8 8 6 7 7 3 4 4 3 4 5 6 8 6 7 9 9 6 4 5 6 8 8 8 7 6 6 7 9 10
19 19 20 20 20 18 16 14 7 2 4 10 11 7 4 5 6 4 5 6 6 3 4 5 4 5 5 5 10 12 9 9 9 9 16 16 12 9 8 8 8 8 10 12 11 10 5 6 5 8 9 10 8 7 10 9 7 8 10 12 9 6 6 2 3 4 5 6 7 8 7 6 9 10 9 7 6 7 7 8 10 9 8 8 7 8 9 9
20 20 20 19 19 19 14 6 2 2 9 8 5 4 2 8 6 5 4 5 4 1 4 5 3 5 7 7 10 10 7 9 8 10 16 16 12 9 7 6 6 7 8 9 7 7 3 5 6 7 8 10 9 8 10 10 8 6 9 13 12 8 6 5 5 6 6 3 5 6 6 5 8 9 9 9 9 9 9 9 10 9 9 8 7 8 9 9
22 21 21 19 18 16 9 4 4 7 8 2 3 2 6 11 4 6 4 5 4 0 2 3 2 4 5 7 12 9 4 8 8 10 15 15 13 8 7 8 6 5 4 5 5 5 5 6 6 7 8 9 8 7 9 11 9 3 6 9 12 10 8 8 7 7 4 2 5 7 7 4 7 8 8 9 9 10 10 10 10 10 9 9 8 8 8 9
23 22 21 19 16 12 7 8 9 8 5 2 1 5 11 8 5 6 5 5 2 1 1 3 4 3 3 7 13 7 1 9 10 10 14 16 13 8 8 9 9 8 8 7 4 4 8 10 9 10 9 7 7 5 8 13 10 2 5 4 7 8 8 8 7 6 3 2 6 9 7 6 6 7 6 8 9 10 11 10 10 10 10 9 9 8 9 9
23 22 21 19 16 12 7 9 10 8 5 5 6 9 10 4 6 4 5 3 1 1 1 3 4 5 5 8 12 8 2 6 5 7 13 14 9 6 6 6 8 8 10 12 6 4 5 5 6 10 9 5 3 1 4 13 8 3 5 4 4 5 5 6 7 6 4 6 8 8 6 6 5 7 6 7 8 8 9 9 8 9 9 9 8 8 9 9
24 23 20 17 14 8 5 10 13 11 9 8 8 10 5 5 5 5 4 2 1 2 3 2 3 5 8 10 11 9 6 4 4 8 12 11 9 7 3 2 6 6 7 11 10 1 3 1 2 7 6 1 3 3 0 7 4 1 6 7 6 6 5 5 6 4 5 8 7 6 4 5 5 8 7 5 3 3 6 7 6 6 7 8 7 7 8 8
27 25 20 14 9 4 4 6 6 5 4 5 7 6 5 6 4 6 4 1 2 3 4 4 4 6 9 10 9 10 8 4 8 12 11 9 10 9 5 4 5 6 6 8 9 7 7 5 3 5 4 2 2 3 2 3 3 4 8 8 7 6 5 5 5 5 7 7 5 5 4 7 6 5 7 6 5 4 3 4 4 3 4 4 5 6 7 8
29 24 19 14 10 10 9 5 2 2 3 6 8 5 6 6 6 7 4 1 2 3 3 3 4 5 6 8 9 11 10 6 9 12 11 10 10 9 9 8 6 7 7 6 8 8 8 9 8 6 5 6 7 4 4 5 5 7 8 7 7 6 6 7 6 7 8 4 4 3 3 7 5 4 7 7 6 4 3 2 1 0 0 1 3 5 6 7
27 22 16 11 8 13 13 9 8 10 10 9 6 5 6 7 7 7 7 4 1 2 1 1 2 2 3 6 8 11 12 8 9 11 12 12 10 10 12 10 9 9 6 6 8 7 7 9 11 8 6 8 10 6 6 7 7 9 9 8 7 6 6 7 7 7 7 3 4 2 2 7 6 4 7 7 6 4 4 3 2 2 1 0 2 4 6 6
25 18 9 4 2 6 7 8 9 9 7 5 5 7 9 10 6 5 9 8 1 0 1 1 2 4 5 5 5 9 11 9 10 10 10 11 9 9 11 10 11 10 5 5 6 6 9 8 10 11 6 9 13 10 6 7 9 10 8 7 7 6 5 6 6 7 8 4 5 4 3 6 7 3 5 6 5 4 5 4 3 2 2 2 2 4 5 6
21 10 1 2 2 5 8 8 8 5 4 5 6 8 10 9 6 5 7 7 5 5 4 3 4 6 7 5 4 8 8 7 11 11 8 10 9 8 10 9 12 11 7 6 4 5 9 6 7 6 2 7 12 10 7 8 9 8 6 7 6 5 5 3 1 1 3 4 5 5 3 2 2 3 4 4 5 6 6 6 6 5 5 5 4 5 5 6
14 2 4 2 2 6 9 8 8 7 6 6 8 9 9 8 6 5 3 3 4 5 5 5 6 7 7 6 6 8 6 5 10 11 8 10 10 10 10 8 11 13 9 6 4 4 8 4 7 7 3 6 6 5 6 7 5 6 7 7 2 2 4 3 2 2 1 6 4 5 5 3 3 4 5 4 4 7 6 7 8 7 8 7 6 6 5 6
8 2 3 2 7 10 9 6 10 10 7 7 9 9 8 8 6 3 1 1 2 3 6 6 5 5 6 6 6 9 9 6 9 10 8 9 9 8 11 8 8 14 13 10 6 4 6 5 7 7 7 5 1 4 6 4 4 4 7 7 3 1 3 4 4 3 4 8 4 5 8 7 6 5 5 4 4 7 6 7 8 8 8 8 7 7 6 7
6 3 2 7 14 12 5 7 12 10 6 7 10 8 8 8 5 3 2 1 2 3 6 6 3 2 5 6 5 7 9 8 9 9 8 8 5 3 7 7 7 10 12 12 8 3 6 6 5 5 4 6 5 6 6 4 4 4 2 5 5 4 6 6 5 5 6 8 5 6 8 8 7 5 5 5 4 6 6 7 9 9 9 8 8 8 8 9
4 4 2 9 15 8 3 9 10 8 6 8 10 8 7 7 5 3 2 2 3 3 5 4 2 2 4 4 3 4 7 7 7 8 7 7 5 1 1 3 5 5 5 9 8 3 4 6 3 4 3 4 6 7 8 8 6 2 2 5 5 4 4 5 5 5 6 7 6 6 7 7 4 2 5 6 4 5 6 7 8 9 9 8 7 8 9 9
4 3 2 9 11 6 5 6 7 6 7 9 9 6 5 6 6 5 4 4 4 4 4 3 2 3 3 3 3 2 5 6 6 7 6 5 5 2 2 1 2 1 1 4 7 4 3 5 4 4 5 5 6 6 6 6 7 7 7 8 6 4 3 4 5 5 6 6 6 6 7 4 2 4 5 6 6 6 7 7 7 8 8 8 8 8 8 9
4 2 3 8 7 3 2 4 6 5 7 8 8 7 4 3 5 6 6 5 5 4 3 4 5 4 2 3 3 2 3 6 7 7 5 6 6 3 3 3 2 1 1 4 6 5 3 4 6 4 5 6 3 3 3 4 3 5 7 9 9 7 6 6 7 6 6 7 5 6 7 2 4 3 3 5 4 5 8 8 7 8 8 8 8 8 8 8
3 1 5 10 7 5 5 4 4 3 6 5 4 6 3 2 4 5 5 6 7 6 4 5 7 6 5 6 4 3 4 5 6 7 6 7 7 4 5 6 5 2 1 1 1 0 0 2 6 6 5 3 5 6 3 4 4 3 5 6 8 8 9 9 8 6 6 6 4 6 6 1 4 3 3 3 3 4 7 8 8 8 7 7 8 8 9 8
3 3 4 10 6 5 6 4 3 3 5 3 2 4 4 4 6 5 4 6 7 6 5 5 6 6 6 5 6 6 5 5 6 6 6 7 4 4 4 7 9 4 1 1 3 2 1 2 5 7 5 2 4 3 2 1 2 5 4 3 4 6 6 6 5 3 5 6 5 7 6 3 4 4 3 4 5 6 7 8 8 7 7 7 9 9 9 9
3 2 3 10 7 4 5 3 2 3 4 3 4 6 6 5 5 6 6 5 3 3 5 5 4 4 4 3 4 5 3 4 5 3 4 5 4 6 2 2 6 5 2 1 2 1 1 1 4 7 7 6 6 6 5 4 4 5 3 1 2 3 3 2 2 3 6 8 9 8 5 3 4 4 5 6 8 9 9 8 8 7 8 8 9 9 9 9
1 0 1 7 8 2 1 3 3 4 3 5 5 4 4 5 1 2 3 1 2 1 3 2 1 2 3 3 5 5 4 4 3 1 2 3 5 5 4 1 4 6 8 8 6 4 2 2 4 5 7 7 7 5 3 4 4 2 2 2 0 2 3 4 5 7 7 7 9 9 3 5 5 6 8 8 9 10 9 9 8 8 9 9 8 8 8 9
1 2 2 3 5 5 4 3 4 4 3 4 4 1 3 5 3 3 1 1 3 2 1 2 1 3 4 5 6 5 4 4 3 2 2 4 5 4 4 2 4 9 13 14 12 7 3 2 4 4 2 1 2 4 3 1 3 4 4 3 2 0 2 4 7 8 6 6 8 6 6 10 7 8 9 8 8 9 8 9 9 9 10 9 8 9 9 9
1 3 4 3 3 4 3 5 6 4 3 3 2 2 3 4 3 2 1 2 3 2 2 2 1 3 5 6 7 5 3 4 3 1 1 3 5 6 5 6 8 9 10 12 11 7 3 1 1 4 6 5 6 8 6 3 4 5 5 5 4 2 1 3 4 4 6 6 7 5 12 13 8 8 9 8 8 7 7 8 9 10 10 9 9 10 10 10
2 2 4 3 3 5 5 5 7 6 6 4 1 2 2 2 3 4 3 2 3 3 2 2 4 2 2 4 5 4 3 4 4 3 2 3 5 8 7 7 8 6 7 8 7 6 5 5 4 4 6 6 7 8 8 7 7 8 8 9 9 7 5 4 4 7 7 3 2 7 13 12 9 8 8 7 7 7 8 8 9 10 11 11 11 11 11 11
2 2 3 2 2 5 5 6 7 7 9 8 4 5 6 8 8 7 5 2 3 5 4 3 6 6 2 1 2 3 2 1 3 3 2 2 3 5 6 7 6 4 6 6 4 2 3 6 9 10 9 7 6 7 8 8 7 7 9 9 9 10 10 9 8 8 8 7 7 10 15 13 8 7 8 7 6 7 8 8 9 11 11 11 11 12 12 12
2 2 2 2 4 6 5 5 6 6 8 7 6 7 8 10 10 8 8 7 5 6 7 6 7 8 8 6 4 6 5 5 4 5 3 2 1 1 1 3 3 4 5 5 3 1 1 4 10 9 7 6 4 5 6 6 5 5 5 6 6 7 8 8 7 7 6 8 9 11 13 10 6 7 8 8 8 9 9 10 10 10 10 11 11 12 13 13
3 2 3 1 4 4 4 4 5 5 6 6 6 7 8 10 10 7 8 10 10 8 9 7 6 5 9 11 10 9 7 6 5 5 5 3 3 3 3 3 2 2 5 5 4 3 2 4 7 7 6 6 4 3 3 4 5 5 6 4 5 5 5 6 5 5 4 4 8 8 7 7 6 8 9 9 10 11 11 11 11 10 10 11 12 12 12 13
2 0 3 2 3 4 4 5 5 4 4 4 5 6 7 10 10 6 5 8 11 12 10 9 6 3 7 11 10 9 7 7 5 4 4 3 3 4 4 5 5 2 3 4 4 5 5 6 6 7 7 5 6 5 3 2 2 5 5 1 5 4 5 6 5 5 5 3 1 3 6 7 8 9 10 11 11 11 11 10 10 11 11 12 12 11 11 12
Wind_Direction
348 343 337 332 328 323 318 314 313 313 310 307 306 306 307 308 306 310 316 314 312 308 308 310 308 310 307 306 307 308 308 303 297 274 253 255 250 232 232 184 180 167 160 162 166 171 172 186 184 181 190 184 204 199 179 198 207 204 225 227 231 228 217 210 200 194 90 91 69 45 9 348 111 129 136 151 143 134 148 142 127 109 87 86 95 124 139 144
351 347 341 335 331 325 319 314 312 310 307 306 304 305 303 301 305 310 311 309 308 309 310 308 308 310 306 310 310 306 307 298 284 270 257 255 249 225 208 188 179 167 161 168 177 179 181 185 178 182 193 184 187 179 174 184 199 215 226 227 233 233 208 182 301 18 39 36 36 44 14 359 76 127 159 176 147 151 164 147 148 133 119 112 121 140 144 147
353 350 345 339 333 328 321 315 311 308 303 303 301 300 297 296 302 305 308 305 304 308 309 308 307 306 306 310 306 306 307 295 279 257 250 251 218 198 178 180 177 166 166 179 184 187 192 187 178 185 196 195 188 182 187 180 191 220 230 232 232 232 234 197 206 199 20 348 359 36 8 13 57 122 195 186 155 169 172 154 170 157 145 140 141 153 152 155
354 351 348 342 338 332 325 319 312 307 303 301 298 295 294 295 297 300 303 301 303 304 305 307 304 305 308 307 304 310 303 281 267 146 141 31 191 179 167 175 174 168 169 181 188 195 202 189 183 193 203 201 189 193 197 177 187 213 218 240 248 217 234 192 172 221 357 333 328 352 321 37 33 325 222 185 163 171 171 158 174 165 157 153 155 164 163 163
352 351 349 346 343 337 330 324 315 309 304 300 297 293 293 295 294 294 295 294 301 303 305 307 306 311 306 305 308 305 292 265 104 89 60 18 173 169 167 174 171 169 172 181 182 190 198 189 187 197 209 204 184 194 201 188 200 219 217 242 275 214 228 175 145 217 334 308 297 304 292 37 356 289 245 205 179 148 135 143 150 161 161 160 162 168 171 173
350 350 349 347 346 341 336 328 321 314 306 301 297 295 293 293 293 291 291 293 297 298 305 308 308 311 304 309 310 280 272 286 78 53 359 17 160 162 164 169 168 172 181 182 176 182 188 185 189 196 208 209 192 198 201 187 200 229 219 225 239 230 236 223 159 167 288 277 274 294 335 358 258 247 274 231 202 66 25 344 308 162 160 160 163 171 177 181
349 348 346 347 347 344 341 333 327 321 313 306 299 296 293 292 290 288 290 290 293 299 302 305 307 307 312 317 295 248 249 280 54 347 332 34 158 157 157 158 164 175 182 182 179 183 184 185 196 199 205 209 199 201 196 181 197 231 228 203 218 230 239 249 249 223 254 268 276 303 301 269 242 226 206 231 226 27 347 304 221 163 155 161 165 177 182 184
349 347 346 346 345 344 343 338 334 326 318 310 301 296 292 291 288 285 287 287 290 296 296 302 307 307 327 323 282 247 238 281 31 317 314 148 159 157 152 152 164 177 183 188 185 190 190 193 200 200 208 208 200 198 186 187 204 227 234 203 207 223 233 244 255 252 253 256 257 271 266 253 244 257 237 220 198 349 319 238 190 164 158 168 173 181 185 187
350 349 346 344 343 344 342 340 338 331 324 314 304 295 289 287 286 285 286 288 289 291 297 301 300 304 325 308 278 268 217 52 34 346 89 153 163 160 157 159 172 179 187 192 192 201 198 199 201 202 223 209 195 197 185 201 211 218 228 221 212 223 230 236 246 249 247 239 231 244 244 229 219 247 231 201 159 161 196 178 170 163 166 172 176 183 188 188
349 348 345 345 344 342 342 341 338 335 329 317 307 298 289 285 283 285 283 286 288 290 296 295 298 310 304 280 271 276 96 63 37 61 126 163 166 165 169 173 175 183 191 188 197 205 204 213 200 203 247 219 195 198 191 208 221 207 224 228 231 235 231 235 244 244 246 233 221 237 238 188 164 229 214 156 145 168 170 166 164 167 171 172 178 184 191 189
348 346 344 345 343 341 341 340 338 337 333 323 311 300 291 284 277 277 278 280 285 288 292 290 297 310 286 272 270 287 90 76 27 53 130 167 169 172 182 181 179 190 192 188 202 202 208 224 191 198 236 190 188 195 194 212 250 206 221 225 231 238 232 232 240 237 239 227 213 231 238 176 175 224 205 127 145 172 165 162 165 174 169 173 185 182 190 188
347 346 345 343 341 340 339 338 338 336 335 327 314 304 294 287 276 273 275 278 281 281 287 285 296 306 282 264 256 265 219 239 334 62 138 163 174 184 190 185 188 200 196 200 206 197 205 217 202 212 197 163 180 183 188 203 225 219 219 230 218 222 229 225 226 223 223 213 184 211 227 197 195 211 166 124 151 164 168 169 166 178 172 174 186 184 188 171
346 346 345 342 340 339 338 337 336 335 335 330 320 308 296 289 280 276 273 275 277 275 281 283 291 286 273 272 247 230 245 257 268 216 165 169 180 195 197 189 193 209 214 218 204 191 200 209 224 232 206 202 181 130 154 176 209 216 214 242 220 215 226 212 209 206 211 198 153 203 230 211 202 196 156 141 164 166 173 177 169 177 173 174 182 186 175 132
345 344 344 342 340 337 337 335 334 334 331 331 324 308 296 290 281 274 269 274 272 267 271 262 264 254 258 275 247 238 257 262 255 219 181 176 175 178 184 188 194 202 215 225 187 186 199 207 248 246 211 241 183 126 176 174 199 211 204 229 231 236 212 183 189 197 202 174 166 210 239 228 197 174 158 155 169 177 182 177 173 175 169 174 178 183 156 108
343 343 342 342 340 336 336 335 333 332 329 330 323 307 295 286 278 271 262 269 272 267 253 228 240 245 266 264 230 269 262 231 227 207 186 182 176 168 170 179 185 184 191 187 155 179 196 206 238 229 179 211 212 185 192 182 197 208 208 214 218 234 189 163 177 198 204 167 181 212 234 239 189 152 154 160 170 184 189 177 173 173 170 174 174 178 143 107
342 341 340 340 341 337 336 334 332 331 329 329 324 317 307 293 277 266 248 232 247 175 184 229 224 242 282 276 153 270 222 193 204 188 185 189 189 171 157 163 167 172 182 169 153 166 187 208 232 259 191 183 199 202 194 187 197 201 219 223 204 214 208 170 170 195 214 175 183 212 235 242 155 138 154 162 175 187 192 182 173 176 174 176 180 175 142 123
340 339 339 338 340 339 336 333 331 330 328 330 331 325 311 300 252 209 142 152 214 175 215 257 243 242 265 267 221 197 158 139 142 161 180 188 197 164 152 158 162 165 166 155 164 172 183 205 207 218 216 203 200 205 203 198 198 190 212 228 206 213 226 190 161 179 204 202 203 211 231 246 138 136 162 167 181 190 194 184 170 177 179 181 188 181 162 151
339 337 336 336 338 338 335 331 330 329 327 331 334 327 323 340 134 146 138 154 176 187 217 248 244 242 229 229 247 167 118 76 126 147 165 169 174 164 158 161 158 159 162 159 178 189 187 199 210 202 195 202 203 205 212 207 203 193 198 217 209 213 228 217 164 156 182 207 218 210 219 236 205 156 170 174 184 193 194 182 169 174 180 187 194 192 177 169
337 336 335 334 335 336 334 331 328 327 327 332 340 341 6 90 149 179 183 183 186 220 257 196 202 263 317 241 245 228 219 143 149 158 161 158 159 163 163 160 159 165 169 168 179 190 193 188 206 215 193 193 200 209 224 226 229 213 199 214 216 202 213 217 156 126 186 209 216 217 217 230 221 188 179 177 181 193 190 177 174 173 180 191 197 200 179 172
337 335 334 331 333 334 332 329 325 323 324 329 330 297 252 200 236 195 179 207 221 252 282 258 224 263 292 275 240 223 199 186 198 180 164 161 157 160 162 160 168 179 184 181 169 175 210 203 200 211 203 195 198 216 274 351 313 245 209 218 224 211 203 201 157 109 213 233 220 220 220 228 225 194 177 176 176 190 191 182 186 181 182 194 197 197 180 175
336 334 333 331 332 332 331 329 321 319 321 315 276 257 274 311 310 336 274 243 234 241 259 262 251 256 265 270 171 161 184 193 199 169 165 169 167 166 162 166 178 185 190 183 150 151 216 219 209 205 193 173 186 216 306 289 254 236 224 217 213 219 204 164 139 122 177 239 228 214 224 227 214 180 170 174 180 191 195 190 192 188 185 193 194 191 180 171
337 336 333 331 332 331 332 328 317 318 318 289 237 257 293 334 347 354 317 280 266 248 245 251 253 251 248 243 219 187 260 224 188 161 165 177 184 185 169 177 192 180 173 178 159 172 209 225 215 184 111 96 139 183 216 230 236 228 224 223 213 211 199 131 126 156 172 233 230 202 220 215 171 174 177 177 190 192 193 197 196 193 192 191 189 185 179 170
338 337 334 332 331 330 332 326 317 314 294 222 248 265 282 6 343 308 276 282 290 261 237 240 240 236 231 230 212 198 229 232 199 168 169 183 194 196 180 185 199 181 171 192 197 195 204 219 207 168 132 176 186 188 212 224 228 227 219 222 213 189 204 182 148 157 167 241 260 214 213 190 144 175 176 174 193 186 193 205 201 199 199 194 186 182 182 175
340 339 335 332 328 328 333 325 314 301 238 240 270 267 251 314 317 291 252 270 286 265 227 226 230 233 227 209 184 191 209 221 209 171 170 187 188 188 196 194 199 192 185 201 209 221 210 105 145 175 179 208 208 193 212 223 216 217 220 230 222 184 213 232 126 143 168 203 239 222 208 187 169 181 174 162 174 188 199 206 206 205 200 193 185 181 186 183
339 340 335 331 325 326 334 324 298 236 262 271 270 247 220 299 313 266 250 275 269 230 177 185 210 219 194 154 168 185 199 209 215 174 169 191 185 172 197 198 203 207 198 200 212 235 220 103 134 191 193 210 218 205 211 221 217 206 212 231 243 216 215 233 138 184 212 192 192 213 215 184 172 183 179 162 174 196 198 202 208 207 201 198 190 182 187 188
338 338 334 328 324 327 334 321 206 281 296 274 233 179 227 313 306 223 247 283 260 194 149 181 198 166 160 167 168 173 193 201 206 172 170 193 191 181 195 183 209 226 198 194 215 243 212 133 173 198 196 209 222 221 205 210 227 205 190 211 229 233 227 233 216 214 232 188 156 214 237 182 168 182 178 169 184 196 196 206 209 205 204 203 195 182 184 186
336 335 331 325 324 330 332 304 293 298 290 257 146 188 306 317 273 197 251 268 243 108 132 168 138 140 159 175 169 171 176 154 159 169 176 189 184 193 213 179 192 227 177 184 217 223 194 178 195 206 212 216 220 220 192 201 230 190 141 195 216 221 222 224 224 224 236 109 143 215 248 215 176 169 164 170 187 194 197 207 207 205 203 199 197 185 181 185
333 332 327 320 318 315 293 283 294 280 272 313 254 292 319 312 204 193 272 271 224 105 144 110 101 145 155 168 181 201 113 135 160 172 176 188 184 198 222 197 199 197 172 197 205 151 183 198 199 204 216 218 211 203 177 198 223 104 98 197 213 212 218 215 222 229 225 206 196 201 226 231 177 141 146 174 190 197 196 200 201 201 198 195 197 187 180 184
330 327 322 316 314 307 271 258 262 254 267 283 280 310 319 263 192 220 270 264 210 145 125 107 134 169 152 162 193 220 215 173 182 150 162 185 196 217 237 215 214 194 178 215 233 101 154 208 218 212 215 210 184 83 180 204 215 83 119 179 178 189 210 214 226 227 200 226 220 183 201 239 183 146 162 184 193 193 186 190 193 192 196 193 191 189 183 178
327 323 320 316 314 309 253 241 253 265 273 267 290 320 300 201 205 237 227 240 258 117 123 160 158 160 159 168 192 207 203 172 130 141 161 179 191 211 253 236 226 211 189 222 246 235 133 128 267 230 235 301 82 63 227 215 215 132 178 184 174 183 195 211 229 228 212 224 210 169 198 249 204 166 168 164 150 140 151 166 171 180 196 195 187 188 185 179
327 324 320 308 290 262 229 241 264 281 258 272 323 321 235 199 228 234 201 249 282 152 148 170 145 156 178 184 190 195 193 150 139 161 167 172 185 197 205 197 211 217 205 218 235 229 206 200 213 216 224 264 185 148 131 193 204 209 206 196 188 189 192 206 208 210 228 225 173 147 199 238 225 174 145 115 79 65 92 136 140 162 189 192 193 191 185 182
327 327 319 296 262 234 236 243 264 254 254 310 322 279 214 200 223 230 202 185 232 177 152 143 140 160 191 201 200 193 193 173 160 173 176 177 185 192 200 197 184 197 209 208 206 210 216 218 214 195 187 214 225 193 150 174 199 212 212 204 202 198 197 209 206 208 227 214 129 137 209 227 221 122 111 104 86 62 42 50 49 18 159 160 203 198 183 178
328 328 316 296 252 230 246 265 267 264 275 296 289 227 213 218 218 217 215 215 151 95 76 133 169 190 203 213 204 192 197 189 172 181 187 188 191 193 203 207 199 206 219 203 196 196 201 212 214 207 189 204 226 221 174 178 192 204 207 205 213 210 202 211 210 213 219 173 114 132 219 223 205 112 88 85 73 64 62 54 15 351 351 31 201 195 177 173
330 327 310 311 253 241 278 289 268 262 266 261 224 202 213 222 218 209 220 226 208 10 273 255 265 246 218 224 197 182 201 201 183 186 187 190 200 200 200 206 208 220 232 202 204 210 209 206 202 206 189 183 210 232 223 193 192 206 214 214 226 230 221 225 226 227 225 186 137 150 208 225 205 126 70 74 80 83 88 93 92 85 99 130 159 165 163 160
335 333 248 90 3 319 326 295 253 230 219 218 209 206 209 213 216 217 223 229 227 235 243 248 271 250 217 215 195 187 215 213 190 198 200 195 205 203 200 203 205 217 231 211 198 213 229 224 170 170 138 177 204 225 232 220 200 198 223 224 230 245 235 231 291 308 261 220 172 175 209 242 181 114 91 94 96 94 95 104 109 109 114 120 124 127 137 135
344 351 166 125 338 324 318 275 217 193 204 212 207 210 212 213 222 221 213 230 232 234 239 231 237 244 223 202 189 186 209 218 191 198 209 204 208 208 207 204 197 207 220 217 196 196 230 226 138 143 175 194 219 220 210 236 216 174 213 220 205 297 259 234 170 98 285 245 198 180 210 196 161 153 125 123 108 96 95 101 105 106 112 117 115 119 129 128
342 259 186 28 345 328 310 237 187 183 201 216 216 218 218 215 223 226 161 149 224 231 245 234 213 236 237 216 195 178 184 197 189 196 207 201 207 214 212 210 201 208 217 224 228 220 236 226 150 175 198 164 200 231 196 239 255 201 211 199 129 50 248 244 236 192 214 236 202 180 214 206 191 183 140 147 126 97 93 97 104 109 108 103 102 111 120 122
317 251 187 8 347 330 297 186 176 182 197 218 223 227 226 219 215 218 185 164 229 226 239 240 214 237 246 228 207 177 181 187 179 192 205 191 184 215 216 211 203 212 223 229 229 207 233 235 161 172 198 140 155 212 195 194 243 270 238 178 173 222 215 209 230 223 214 229 216 190 209 214 207 189 158 172 138 95 100 105 108 106 99 95 96 103 108 113
277 235 165 11 355 345 175 171 179 193 203 213 220 223 226 224 213 211 223 232 235 238 242 244 230 237 241 239 228 183 194 204 184 191 207 193 179 189 242 210 190 204 240 240 230 193 216 242 191 148 160 154 174 207 211 191 187 231 247 197 205 245 235 210 217 230 230 232 223 202 207 214 208 124 125 151 130 111 120 114 108 97 88 88 93 102 109 114
265 243 96 19 7 37 112 168 193 204 204 211 224 221 212 226 226 217 228 249 248 249 257 251 224 225 234 245 248 217 218 231 215 207 206 180 166 127 58 59 175 154 335 246 235 213 195 235 228 151 145 189 200 207 230 219 189 199 213 208 206 213 235 242 226 229 248 243 226 221 222 203 101 55 83 113 116 132 138 123 112 100 90 84 89 106 114 114
268 256 55 12 345 360 21 220 204 203 209 215 230 228 211 231 241 220 211 230 250 254 270 273 255 254 276 257 238 223 239 240 228 223 209 183 186 164 81 62 57 95 161 213 220 211 193 222 229 196 188 212 195 81 357 318 278 226 220 216 216 211 213 229 224 213 234 251 246 239 235 160 78 38 65 93 110 140 143 137 121 107 98 88 91 108 112 105
297 353 31 2 329 287 290 240 189 216 225 216 237 239 228 236 249 233 204 210 233 238 245 260 259 260 266 263 262 261 261 252 232 226 218 204 201 174 131 117 99 93 214 165 147 311 320 235 230 226 225 192 101 76 39 347 327 275 255 240 230 224 220 230 234 209 208 232 249 250 244 139 75 44 59 90 130 140 143 147 134 115 103 93 94 102 102 99
21 56 42 6 335 255 273 245 190 225 223 218 297 247 226 229 234 233 208 205 222 225 225 239 245 249 250 256 268 261 256 258 250 242 229 211 169 103 125 134 117 103 317 80 85 41 342 257 238 227 223 143 115 126 131 51 261 237 232 244 250 242 234 246 257 218 207 216 220 236 232 153 86 56 62 100 132 142 148 150 143 125 107 106 108 107 106 107
36 62 62 20 4 245 265 293 238 236 220 231 251 220 211 227 241 243 227 215 222 229 235 238 233 243 248 245 260 259 255 252 246 248 251 220 138 84 64 151 135 112 55 65 90 100 142 316 277 226 213 203 193 194 183 181 215 225 205 174 288 270 233 234 249 233 234 225 220 236 231 121 89 74 81 100 122 136 142 142 149 141 121 119 119 114 114 113
339 292 92 33 29 41 352 358 325 290 256 239 234 223 218 204 193 310 256 200 37 327 262 265 263 261 250 232 242 244 239 251 251 240 232 183 125 90 55 264 189 142 113 102 84 81 99 10 319 248 226 223 217 213 211 199 185 163 125 117 52 250 217 220 224 229 233 210 212 241 231 114 102 94 92 97 112 123 128 128 136 132 118 117 118 115 117 115
343 12 10 31 44 51 56 30 341 308 276 242 227 315 274 208 140 44 322 96 55 26 347 351 311 255 235 225 228 223 213 224 239 236 201 153 124 94 62 87 138 129 123 115 100 87 87 42 5 348 342 324 347 11 358 292 166 138 124 110 76 263 247 254 235 233 238 207 210 225 151 132 122 102 98 99 107 115 118 120 121 118 113 116 122 122 118 114
24 23 5 349 19 26 35 34 13 349 325 279 245 355 314 222 163 90 41 50 59 48 29 34 359 249 230 220 215 206 188 192 188 164 150 128 116 109 98 96 101 108 123 123 113 108 113 107 15 36 55 49 35 34 30 47 97 92 93 85 63 67 212 247 256 295 300 245 219 154 130 131 117 103 106 104 107 108 106 110 117 120 121 123 126 123 117 109
29 51 19 330 337 15 17 7 6 17 18 5 353 24 29 93 90 58 38 43 61 28 350 50 30 348 234 231 222 189 163 161 141 106 114 132 132 135 128 107 98 118 150 141 131 141 144 154 171 137 104 80 54 43 41 59 77 74 72 70 62 63 76 80 45 9 350 296 195 124 120 113 99 107 111 101 103 108 106 112 118 120 123 126 126 123 117 107
54 80 48 327 359 46 37 344 347 32 30 13 28 40 45 66 65 47 21 12 69 36 18 67 46 30 72 218 235 161 124 129 118 95 67 94 132 154 147 123 108 138 167 149 136 164 161 158 163 155 138 119 84 60 48 48 61 70 66 60 58 63 68 72 67 49 50 63 79 103 104 91 86 104 101 91 95 102 107 115 118 117 118 120 118 114 109 101
29 41 24 61 67 58 53 356 349 41 34 2 21 37 40 55 58 53 36 26 50 37 21 53 57 45 66 78 81 85 50 19 69 76 29 24 84 96 110 115 108 134 153 147 144 200 297 170 166 160 151 148 119 81 63 42 35 36 27 26 38 53 60 61 54 43 57 81 93 101 94 84 87 99 96 98 99 99 103 105 107 111 113 112 108 105 104 100
17 3 312 5 62 37 46 37 6 34 36 8 12 19 27 40 39 50 59 44 42 34 10 15 28 42 70 72 64 61 35 5 29 40 16 18 40 34 34 38 35 151 160 156 167 185 185 166 172 186 198 191 171 130 91 54 20 330 307 347 29 36 52 56 41 13 18 88 121 123 102 97 114 110 101 98 92 87 85 85 86 86 85 89 91 91 96 97
348 149 278 290 55 29 39 59 41 42 40 4 358 357 7 24 25 35 71 47 34 30 11 356 348 12 67 57 38 18 350 332 343 352 347 1 36 49 58 56 41 46 151 156 176 188 174 161 171 204 218 194 165 151 117 72 313 280 267 35 54 75 104 86 53 29 13 6 135 122 100 112 128 124 109 97 86 76 69 68 71 69 62 62 65 68 74 79
Height
807 805 804 803 802 801 800 799 799 798 797 797 796 796 795 794 793 793 792 791 791 790 789 788 788 787 786 785 784 783 782 780 778 778 775 766 763 764 763 764 764 766 768 770 772 772 773 773 773 774 773 773 771 768 770 770 768 772 775 776 773 766 761 756 756 756 754 757 758 757 757 757 758 756 753 752 754 758 760 760 759 759 757 756 758 760 766 771
806 805 804 802 801 800 799 798 797 797 796 796 795 795 794 793 793 792 791 790 790 789 788 787 787 786 785 784 783 782 781 779 777 774 767 761 762 762 762 764 764 766 767 769 770 769 770 770 770 772 771 770 769 768 770 769 769 771 771 773 768 759 755 753 754 755 756 760 759 757 757 756 756 756 753 756 760 760 762 763 761 762 761 759 761 765 769 772
806 805 803 802 800 799 798 797 796 796 795 795 794 794 793 792 792 791 790 790 789 788 787 787 786 785 784 783 782 781 780 779 774 766 761 759 760 761 762 763 764 766 767 768 768 767 767 767 768 769 768 768 767 768 770 769 770 768 768 771 763 755 755 754 756 758 758 760 760 759 757 756 755 754 754 755 758 760 760 761 762 764 764 763 764 765 769 772
805 804 803 801 800 798 797 796 795 794 794 793 793 793 792 791 791 790 789 789 788 787 786 785 784 784 783 782 781 780 780 776 766 759 759 759 759 760 761 762 764 766 767 768 768 767 766 766 767 767 767 767 766 767 769 768 768 766 767 767 757 755 759 756 757 758 759 760 761 761 758 757 755 752 754 754 758 762 757 753 755 758 761 763 765 765 768 771
805 804 802 801 799 798 796 795 794 793 793 792 792 792 791 790 790 789 788 788 787 786 785 784 783 782 781 781 780 780 780 771 759 757 759 758 758 759 761 762 764 766 767 768 768 768 767 766 766 767 767 766 766 768 767 763 764 766 765 761 757 759 762 756 756 759 760 761 761 761 760 758 755 753 754 754 758 760 754 750 751 752 755 760 763 765 767 770
804 803 802 800 799 798 796 795 793 792 791 791 791 790 790 789 789 788 788 787 786 785 784 783 783 781 780 779 779 780 778 766 757 758 759 758 759 759 761 762 764 766 767 768 766 767 766 765 767 768 767 764 766 767 763 760 763 767 763 759 761 761 761 756 756 761 761 762 763 761 760 758 759 757 754 754 754 753 752 751 751 751 753 757 762 764 767 769
804 802 801 800 799 797 795 794 792 791 790 790 789 789 789 788 788 787 787 786 785 784 784 783 782 780 779 778 778 778 773 762 757 759 758 758 759 759 761 762 764 767 767 766 765 765 764 765 766 765 765 765 764 763 760 761 764 767 762 760 762 760 761 758 756 759 761 763 761 759 759 760 761 759 756 756 753 751 752 751 751 752 753 758 762 765 767 769
803 802 800 799 798 796 795 793 792 791 789 789 788 787 787 787 787 786 785 785 784 783 783 782 781 780 779 778 777 772 765 759 757 758 758 758 759 760 762 763 765 766 765 765 763 763 763 765 764 762 765 763 761 761 760 763 766 765 762 759 760 760 760 757 756 759 760 761 759 759 761 759 758 757 758 756 753 753 753 751 751 753 755 759 762 765 767 769
802 801 800 799 797 796 794 793 791 790 789 788 787 786 786 786 785 785 784 784 783 783 782 781 781 779 779 778 775 767 759 758 758 758 757 758 759 760 762 763 765 765 764 764 763 763 763 763 762 760 762 761 760 760 761 765 764 761 759 758 760 760 758 757 757 758 758 758 758 761 761 757 755 757 758 754 754 755 753 753 753 754 758 760 763 766 767 769
802 800 799 798 796 795 794 792 791 790 788 787 786 785 784 784 784 783 783 783 782 782 781 781 780 779 779 778 774 764 757 758 759 758 758 759 759 760 762 763 763 763 763 763 763 763 762 761 759 759 760 759 760 760 761 763 759 755 757 757 759 758 756 757 757 756 756 756 757 760 759 756 756 759 758 753 754 755 754 756 755 756 760 761 763 766 768 770
801 799 798 797 796 794 793 792 790 789 788 786 785 784 783 783 782 782 782 781 781 781 780 780 779 779 779 777 772 762 756 758 759 758 759 759 760 761 762 762 763 763 762 762 763 762 761 760 758 760 761 759 760 761 760 758 756 756 758 759 759 757 756 757 757 755 755 755 754 755 758 757 759 759 755 753 754 754 755 758 758 758 761 762 764 766 769 771
800 799 797 796 795 793 792 791 790 789 787 785 784 782 781 781 780 780 780 780 780 780 779 779 779 779 779 775 767 759 756 758 759 759 759 759 761 761 761 762 762 762 761 761 762 761 762 762 760 761 760 757 760 763 760 755 756 758 759 761 759 757 758 755 754 753 754 754 750 753 762 762 760 757 751 752 754 754 756 758 759 760 760 763 764 766 769 772
800 798 797 795 794 793 791 790 789 788 786 785 782 781 780 779 779 779 779 779 779 779 779 779 778 779 779 770 759 756 757 757 758 758 759 759 760 760 761 762 762 762 762 761 761 762 764 763 761 760 758 757 758 761 757 754 759 760 759 760 757 758 757 749 749 752 753 753 748 755 768 762 753 751 749 751 753 754 758 758 759 760 760 762 764 766 769 773
799 797 796 795 793 792 791 789 788 786 785 783 781 780 779 778 778 777 778 778 778 779 778 778 778 780 778 764 754 755 756 756 757 757 758 759 759 760 760 761 762 763 762 762 761 762 764 763 762 760 759 758 756 757 758 758 760 759 760 761 758 759 754 743 746 751 754 753 747 756 767 755 742 745 749 750 752 754 757 757 758 760 760 762 764 766 770 776
798 797 795 794 792 791 790 788 787 785 784 782 780 779 777 777 777 776 777 777 777 777 777 778 778 778 773 760 753 754 754 755 755 755 757 757 758 758 759 761 762 763 763 763 763 763 764 763 763 761 759 758 757 760 760 760 758 756 764 765 758 757 751 743 746 748 750 751 747 755 764 751 739 744 748 749 751 753 755 757 758 759 761 763 764 766 772 779
797 796 794 793 791 790 789 787 786 784 783 781 779 777 776 776 775 776 776 776 777 777 778 778 777 777 770 757 752 753 753 753 753 754 755 755 756 756 758 760 761 762 763 762 763 763 763 763 761 759 758 759 760 759 758 761 761 756 761 761 755 755 751 746 747 744 745 749 749 754 757 748 741 745 749 749 751 753 754 756 758 761 762 763 765 767 774 781
797 795 793 792 790 789 788 786 785 783 781 780 778 776 776 775 774 775 775 776 777 777 778 776 776 777 766 753 751 752 750 751 751 753 754 755 756 755 757 759 759 761 761 762 763 762 762 762 761 760 758 757 755 754 761 769 766 759 758 756 752 753 750 748 749 744 743 749 751 752 753 748 744 747 750 750 751 753 755 756 759 761 762 763 765 768 774 780
796 794 792 791 789 788 786 785 784 782 780 778 777 776 775 774 774 775 775 776 777 778 778 776 776 773 761 752 751 749 748 750 751 752 753 754 755 756 756 756 757 759 760 762 762 761 761 760 758 759 758 758 755 755 764 765 758 757 759 757 754 753 751 748 747 745 745 749 750 751 754 750 745 747 750 751 751 754 754 755 758 761 763 765 765 767 772 777
795 793 791 790 788 787 785 784 782 781 779 777 776 776 775 775 775 775 776 776 774 771 767 767 767 761 753 750 748 747 748 749 750 751 752 753 754 755 755 756 757 758 760 761 762 760 759 760 762 762 760 760 757 753 754 752 748 751 751 753 753 752 751 745 743 744 745 750 751 750 752 750 745 747 750 752 753 755 756 756 759 761 763 765 766 767 770 775
793 792 790 789 787 786 784 783 781 780 778 777 777 777 774 772 770 769 772 772 765 757 752 753 754 749 748 747 745 746 748 748 749 749 750 752 753 753 754 755 756 757 758 758 760 759 758 763 764 761 756 754 753 751 750 751 751 750 750 752 750 749 749 742 743 747 745 751 751 746 749 748 743 744 748 752 754 757 758 758 760 760 763 764 765 768 770 774
792 791 789 787 786 784 783 781 780 778 777 776 778 776 769 765 765 764 764 761 753 750 749 746 746 746 745 744 744 745 746 747 746 746 749 750 750 752 753 754 758 759 755 753 757 759 760 764 759 752 750 750 752 754 755 757 757 755 754 753 751 750 747 741 746 749 748 754 749 744 748 746 742 744 747 751 755 758 757 758 760 759 761 763 764 767 770 772
792 790 788 787 785 783 782 780 778 777 776 776 776 773 766 764 766 766 764 757 747 745 745 743 743 744 742 744 746 746 747 748 746 745 748 749 748 751 752 753 756 756 753 754 759 764 766 763 753 748 751 754 757 757 759 760 760 758 754 753 753 748 744 745 749 749 750 754 748 745 748 746 746 747 748 750 753 755 754 755 758 758 760 761 763 765 768 771
791 788 787 785 783 782 780 778 777 775 775 775 774 771 767 767 767 766 767 761 748 740 739 741 742 741 742 743 744 746 749 747 745 744 745 748 748 747 749 752 752 751 755 758 759 764 765 756 746 747 753 758 761 761 761 761 760 758 754 754 752 744 745 751 752 750 750 751 749 747 747 748 753 753 750 752 752 752 754 754 755 756 758 760 761 763 765 770
789 787 786 783 782 781 778 777 775 774 774 774 772 769 767 768 767 766 765 759 748 738 736 737 738 739 739 739 741 744 746 743 741 741 742 745 746 746 747 748 749 751 754 754 754 756 754 748 744 749 754 756 760 762 762 762 759 755 753 752 747 742 744 747 749 751 750 752 751 748 751 752 753 755 754 755 756 756 755 756 756 756 756 758 760 761 763 766
787 786 784 782 781 778 777 776 773 773 774 771 769 766 767 767 765 766 764 757 748 737 735 736 736 736 735 737 739 738 740 741 738 737 739 741 742 746 747 744 747 752 752 750 754 752 748 747 748 752 754 754 758 760 759 758 755 753 753 749 744 742 744 745 748 751 753 755 749 747 759 758 749 750 753 755 759 759 757 757 758 757 756 757 759 761 762 764
786 784 782 781 779 776 776 773 772 774 771 768 767 765 767 766 764 766 764 759 749 734 733 737 736 735 734 736 736 735 742 742 733 733 737 739 739 742 747 746 746 749 747 748 753 750 746 748 749 752 755 755 757 756 752 753 753 752 747 742 742 743 745 748 748 750 753 752 745 745 757 759 751 748 749 753 759 758 757 757 756 755 755 755 757 759 761 763
784 783 781 780 777 776 775 772 772 772 768 765 765 765 766 764 764 765 763 763 751 732 732 735 734 734 733 733 732 736 744 738 732 735 736 737 738 739 746 747 748 749 745 750 758 749 744 750 752 752 755 755 756 753 747 749 752 748 740 738 742 742 746 748 747 747 744 744 748 745 745 754 755 750 746 750 756 756 756 757 755 752 753 754 755 757 759 761
783 781 779 777 776 776 775 773 773 770 767 765 764 766 765 762 764 763 766 771 751 728 729 732 732 733 731 732 731 733 735 730 734 738 733 735 738 740 745 744 745 747 744 752 759 747 742 749 752 751 754 753 747 743 741 745 747 743 739 739 739 740 743 743 743 744 739 747 757 746 740 753 755 750 749 752 755 757 755 753 752 750 750 751 753 755 758 760
780 778 777 775 773 773 773 773 771 767 766 764 764 765 762 764 764 758 767 771 743 724 728 730 732 733 731 734 734 731 730 728 733 735 732 737 737 738 743 740 739 743 744 747 748 744 743 745 744 745 748 745 739 739 739 742 744 740 740 740 739 740 742 742 743 741 744 758 761 747 744 755 756 750 751 755 756 756 753 749 748 747 748 749 752 754 756 758
778 776 774 773 772 771 771 770 766 764 764 763 764 763 762 764 761 764 776 765 735 726 729 728 731 731 731 737 737 733 731 729 731 733 735 737 737 738 739 738 738 742 745 745 744 743 742 742 742 742 741 738 738 743 743 741 742 741 740 740 742 742 741 743 741 741 755 766 757 747 746 755 761 751 745 752 752 747 748 748 747 747 748 749 751 753 755 757
775 773 772 771 770 770 770 767 763 762 763 763 763 762 762 761 758 769 773 750 732 731 728 727 730 728 730 735 735 733 731 730 731 734 738 738 740 742 741 743 745 747 750 750 747 742 741 744 743 738 738 738 740 744 745 743 743 743 740 739 747 749 747 751 749 752 768 769 753 746 746 753 763 753 741 747 749 746 748 749 749 751 750 750 750 751 753 755
771 769 768 767 767 768 766 763 762 762 762 762 763 760 760 763 764 766 755 739 738 735 727 730 729 727 730 730 730 731 730 731 731 732 736 737 741 742 742 743 745 752 757 753 748 745 743 741 737 736 737 738 740 742 746 747 744 744 740 741 753 761 763 767 765 764 767 763 753 748 750 756 757 748 743 747 751 752 752 751 752 753 752 752 752 751 752 753
767 765 764 763 763 764 763 761 761 762 761 762 762 757 757 766 766 756 743 737 738 732 726 730 727 726 731 730 728 727 727 730 729 729 731 732 738 739 736 734 734 744 750 746 746 750 749 740 733 738 739 735 737 740 746 748 745 744 740 743 754 761 774 780 771 765 764 760 754 749 755 759 752 746 746 749 753 754 753 754 754 754 755 756 753 752 752 754
764 762 762 761 761 761 760 760 760 760 761 761 760 757 761 767 757 745 741 735 730 729 728 730 728 727 729 728 725 723 727 730 725 727 730 731 738 739 736 735 732 734 739 743 746 746 752 749 737 736 736 732 734 733 733 736 739 738 730 733 745 749 762 773 765 761 761 758 757 758 762 759 752 753 750 748 753 753 753 755 755 755 756 755 754 753 754 756
761 760 760 759 760 759 758 759 758 759 761 758 756 757 762 762 749 742 741 731 726 729 728 727 729 730 727 724 722 720 725 728 724 727 730 730 736 736 734 735 733 733 737 746 747 742 748 745 728 729 732 728 731 728 723 729 737 736 727 733 744 738 741 759 765 763 761 761 761 762 759 748 745 750 748 748 752 751 753 754 754 756 756 755 757 756 757 759
760 759 759 759 760 758 757 757 756 758 758 755 755 755 752 747 739 735 733 728 728 730 729 729 730 731 728 723 723 722 722 724 725 729 729 728 729 728 728 728 728 731 735 741 744 743 749 743 726 730 735 728 730 728 724 732 737 738 738 740 739 728 732 755 769 768 768 769 762 758 757 749 747 750 746 748 752 751 753 753 753 756 756 756 759 759 761 762
760 759 758 758 758 757 755 755 755 757 756 752 753 750 742 735 731 730 729 729 730 728 731 734 730 729 730 725 723 723 723 724 725 729 730 729 729 726 725 725 724 726 727 731 736 736 743 742 729 729 735 731 731 730 728 729 730 736 742 736 731 734 737 747 762 768 771 772 763 758 761 756 757 759 750 748 753 754 754 753 754 756 756 758 760 760 762 763
759 758 757 757 757 754 753 754 755 755 753 752 752 746 739 734 730 729 730 730 730 729 732 734 730 729 729 728 724 720 722 727 726 728 728 728 731 728 725 727 725 724 723 725 732 733 737 744 736 727 732 733 729 732 735 732 728 732 733 725 731 750 752 749 761 769 771 773 767 761 760 754 753 755 751 751 754 755 755 754 755 756 757 760 761 762 763 765
758 755 754 757 756 753 752 754 754 752 751 752 751 745 739 735 732 731 731 731 731 733 733 731 731 731 729 728 727 722 723 725 723 725 725 727 733 731 728 729 729 729 727 726 730 732 735 747 744 731 730 733 730 733 738 735 732 732 730 726 730 743 747 746 751 755 761 768 767 767 765 755 748 748 750 753 754 755 757 757 757 759 761 763 764 765 766 768
756 751 752 757 757 753 753 754 753 750 749 748 745 740 737 736 734 732 732 732 732 732 733 732 732 733 731 729 727 726 725 724 724 724 723 725 732 735 731 730 732 734 733 731 731 732 737 747 748 737 732 735 734 732 731 730 732 734 737 737 737 738 741 744 744 743 750 759 763 770 768 756 755 758 756 756 757 756 758 760 761 762 765 767 768 769 769 771
753 750 753 757 757 755 755 754 749 746 744 743 741 738 737 737 735 732 732 734 733 730 731 733 733 733 733 731 728 728 726 725 725 723 722 723 728 733 734 732 733 735 736 736 735 734 739 745 746 741 738 737 734 730 729 729 728 730 732 732 733 737 742 752 755 746 744 750 753 761 763 759 765 767 761 760 761 758 758 762 764 765 767 771 773 773 774 775
751 751 755 757 756 755 754 749 746 745 742 740 739 739 738 738 736 734 732 733 734 731 731 734 734 733 734 732 729 728 728 727 724 722 723 723 722 728 732 731 731 733 736 739 739 738 740 742 744 743 736 733 734 734 733 733 729 729 730 726 726 729 735 749 756 748 746 750 748 750 758 764 770 768 764 765 764 760 760 763 766 768 770 773 775 775 776 777
753 754 757 757 755 755 753 747 745 746 742 739 740 739 738 739 737 735 733 734 734 733 734 734 733 733 733 732 731 730 730 730 726 723 722 721 723 728 730 728 728 732 735 740 743 743 744 745 747 744 736 732 735 734 733 734 733 732 731 730 731 731 731 738 741 740 747 751 751 755 760 765 771 768 765 765 763 763 763 764 767 771 772 774 775 777 778 779
755 756 756 756 755 753 753 750 748 747 743 743 743 740 738 738 738 736 735 735 734 734 736 734 733 734 733 732 733 731 732 734 730 725 723 722 726 731 731 728 727 731 737 743 743 744 750 754 752 749 748 746 744 741 740 738 735 735 736 739 741 737 736 739 737 738 747 747 748 754 759 766 772 769 765 763 762 764 765 766 770 772 774 776 777 779 781 780
756 756 755 756 756 754 755 757 755 752 749 747 746 744 742 740 740 738 736 737 737 737 738 736 735 736 734 733 735 732 732 736 734 729 726 725 728 731 732 730 727 729 737 741 739 743 759 767 761 755 756 757 755 751 748 742 736 739 744 746 747 743 742 743 741 744 750 747 744 748 757 772 776 770 768 767 764 767 768 769 772 773 776 779 780 782 782 781
756 758 757 757 756 756 758 760 759 756 753 750 749 749 747 743 741 740 738 740 741 740 740 739 738 738 736 735 737 735 733 735 734 732 729 728 730 733 732 730 729 731 737 739 740 749 765 773 769 764 760 758 758 755 749 743 740 744 747 747 748 749 748 745 741 744 746 744 746 745 751 771 779 773 774 774 771 774 774 775 778 779 781 783 784 784 784 784
760 765 766 763 761 760 761 761 761 760 756 753 754 754 750 745 743 742 741 742 743 742 742 741 740 740 740 737 737 739 737 734 734 736 734 732 733 734 733 732 733 738 741 739 739 749 767 776 774 771 766 761 759 755 749 746 746 749 750 750 750 749 749 750 751 751 746 745 751 748 749 768 779 777 780 783 782 783 782 782 784 785 786 787 786 786 787 788
764 769 771 770 770 771 771 771 769 766 762 758 757 756 752 748 748 749 747 744 743 743 744 745 744 741 741 739 738 740 740 738 740 742 739 736 735 735 735 735 736 740 741 739 738 744 759 772 773 771 769 766 762 758 754 751 752 754 754 755 754 751 751 757 762 760 754 752 755 754 757 772 781 782 787 791 792 791 789 788 787 787 788 788 788 789 789 790
767 770 771 770 773 777 781 784 777 770 770 768 763 760 756 752 754 756 753 748 747 745 745 749 749 743 740 740 738 742 746 745 747 749 746 742 739 736 738 739 739 738 737 741 744 743 750 763 766 764 766 768 767 766 764 760 759 759 759 759 758 756 758 761 763 762 761 761 762 763 771 783 787 788 792 795 795 793 792 790 788 789 791 791 792 792 793 793
771 773 773 769 770 775 781 787 782 776 777 777 772 766 761 758 759 759 756 755 755 753 750 751 751 745 742 742 742 748 754 752 750 752 752 749 745 741 742 743 741 739 738 743 748 747 751 762 762 759 763 769 769 770 770 767 765 765 765 764 762 762 764 765 768 769 765 767 771 773 781 791 792 790 793 795 795 795 794 793 792 793 794 795 796 795 796 797
778 779 777 771 772 776 778 782 783 781 783 786 784 778 770 765 763 762 760 759 759 760 758 755 753 748 745 747 750 754 758 756 754 755 753 751 749 746 746 745 744 743 741 744 748 749 753 763 764 761 764 767 769 772 770 767 769 769 768 770 770 771 774 776 780 782 776 772 773 773 780 791 793 792 795 797 798 799 800 799 799 799 799 799 800 800 800 799
780 780 778 773 773 776 774 777 781 783 789 793 793 789 782 773 767 764 764 762 760 762 762 758 755 751 749 754 758 759 760 759 756 755 754 753 750 748 748 746 745 745 743 744 748 747 749 760 765 762 762 764 767 770 769 770 775 774 772 777 780 779 783 787 790 792 789 783 776 774 782 791 791 791 797 801 804 806 807 807 807 808 808 808 809 810 809 806